EDT,Max TemperatureF,Mean TemperatureF,Min TemperatureF,Max Dew PointF,MeanDew PointF,Min DewpointF,Max Humidity, Mean Humidity, Min Humidity, Max Sea Level PressureIn, Mean Sea Level PressureIn, Min Sea Level PressureIn, Max VisibilityMiles, Mean VisibilityMiles, Min VisibilityMiles, Max Wind SpeedMPH, Mean Wind SpeedMPH, Max Gust SpeedMPH,PrecipitationIn, CloudCover, Events, WindDirDegrees
2012-10-1,62,50,39,48,43,37,100,73,48,29.95,29.89,29.81,10,9,0,12,3,17,0.00,1,Fog-Rain,74
2012-10-2,62,56,51,57,52,46,94,81,72,29.91,29.84,29.79,10,10,4,14,7,17,0.01,8,Rain,67
2012-10-3,60,56,51,59,55,50,100,91,77,30.08,29.99,29.90,10,6,2,8,4,,0.02,7,Rain,176
2012-10-4,77,64,50,55,52,48,94,69,39,30.14,30.09,30.04,10,10,7,20,5,25,0.03,3,Rain,228
2012-10-5,57,48,39,55,44,37,100,90,81,30.14,30.11,30.05,10,10,7,12,7,20,0.22,8,Rain,257
2012-10-6,46,40,33,37,33,30,100,75,57,30.16,30.10,30.04,10,10,10,15,8,20,0.00,4,,273
2012-10-7,50,44,35,36,34,32,93,73,50,30.18,30.14,30.11,10,10,10,16,5,20,0.00,8,,275
2012-10-8,53,40,28,34,29,25,100,67,33,30.23,30.17,30.09,10,10,5,10,2,18,0.00,0,,210
2012-10-9,60,50,41,39,35,30,70,57,39,30.11,30.01,29.87,10,10,10,13,5,23,0.00,0,,203
2012-10-10,53,43,33,45,34,27,100,75,43,30.20,30.04,29.85,10,9,5,20,10,28,0.13,5,Rain,278
2012-10-11,60,46,32,36,32,28,93,60,34,30.22,30.17,30.09,10,10,7,18,5,25,0.00,0,,226
2012-10-12,53,45,37,41,31,23,87,60,30,30.46,30.35,30.19,10,10,4,13,8,21,0.00,3,,57
2012-10-13,64,50,37,61,45,28,100,78,58,30.34,30.10,29.91,10,8,3,8,6,20,0.20,5,Rain,168
2012-10-14,69,60,50,63,58,46,100,84,56,29.90,29.70,29.50,10,8,3,29,9,43,0.32,7,Rain,207
2012-10-15,51,44,37,46,42,36,100,83,58,29.98,29.88,29.75,10,9,4,16,11,23,0.00,6,Rain,285
2012-10-16,62,47,32,43,38,32,100,70,45,30.00,29.87,29.70,10,8,2,10,3,18,0.00,1,,166
2012-10-17,71,62,53,54,48,43,94,66,40,29.70,29.61,29.45,10,10,4,17,7,30,0.29,4,Rain,179
2012-10-18,59,52,44,54,41,28,100,70,36,29.64,29.51,29.35,10,10,7,22,9,31,0.27,5,Rain,223
2012-10-19,46,44,42,45,43,41,100,93,87,29.63,29.55,29.51,10,9,5,9,5,,0.40,8,Rain,203
2012-10-20,53,47,41,43,42,41,100,85,62,29.96,29.79,29.63,10,8,2,15,8,22,0.00,7,,248
2012-10-21,62,48,33,46,42,34,100,80,55,30.11,30.05,29.95,10,8,1,8,2,,0.00,0,,161
2012-10-22,69,58,48,61,53,45,94,80,56,30.05,30.02,29.94,10,10,7,10,3,18,0.07,5,Rain,175
2012-10-23,66,62,59,59,57,52,100,84,60,30.02,29.97,29.94,10,10,5,16,6,24,0.06,6,Rain,213
2012-10-24,77,68,60,61,57,54,94,70,54,30.03,29.99,29.96,10,10,10,10,4,20,0.00,3,,197
2012-10-25,75,67,59,57,54,52,77,65,50,29.98,29.91,29.83,10,10,10,16,6,25,0.00,3,,186
2012-10-26,57,46,35,52,36,32,93,75,57,30.27,30.19,29.93,10,10,4,17,12,25,0.11,5,Rain,338
2012-10-27,50,41,32,34,31,30,93,72,47,30.26,30.22,30.16,10,10,10,13,7,18,0.00,0,,1
2012-10-28,46,40,33,34,32,28,93,74,57,30.24,30.19,30.16,10,10,5,15,7,22,0.00,3,,12
2012-10-29,46,39,32,30,26,23,81,62,40,30.18,30.10,29.88,10,10,10,22,11,31,0.00,0,,346
2012-10-30,41,39,37,36,32,23,93,80,49,29.85,29.68,29.62,10,10,4,26,18,34,0.14,7,Rain,335
2012-10-31,41,39,37,39,35,34,100,87,81,29.80,29.72,29.65,10,9,3,22,13,29,0.01,8,Rain,312